Change the Weather History Date:

Monday, December 5, 2011

  Actual Average Record
Temperature  
Mean Temperature 27 °F 27 °F  
Max Temperature 38 °F 34 °F 48 °F (2012)
Min Temperature 16 °F 21 °F 4 °F (2013)
Degree Days  
Heating Degree Days 38 38  
Month to date heating degree days 189 187  
Since 1 July heating degree days 2105 2190  
Cooling Degree Days 0 0  
Month to date cooling degree days 0 0  
Year to date cooling degree days 96 187  
Moisture  
Dew Point 20 °F    
Average Humidity 70    
Maximum Humidity 84    
Minimum Humidity 56    
Precipitation  
Precipitation 0.00 in 0.08 in 0.68 in (2003)
Month to date precipitation 0.00 0.43  
Year to date precipitation 18.10 19.82  
Sea Level Pressure  
Sea Level Pressure 30.52 in    
Wind  
Wind Speed 1 mph (SSE)    
Max Wind Speed 7 mph    
Max Gust Speed 9 mph    
Visibility 10 miles    
Events      
T = Trace of Precipitation, MM = Missing Value Source: NWS Daily Summary

Daily Weather History Graph

Daily Weather History Graph

Search for Another Location

Airport or City:

Trip Planner

Search our weather history database for the weather conditions in past years. The results will help you decide how hot, cold, wet, or windy it might be!

Date:

Astronomy

Dec. 05, 2011 Rise Set
Actual Time 7:22 AM PST 3:57 PM PST
Civil Twilight 6:47 AM PST 4:33 PM PST
Nautical Twilight 6:07 AM PST 5:12 PM PST
Astronomical Twilight 5:30 AM PST 5:49 PM PST
Moon 1:10 PM PST (12/5) 2:34 AM PST (12/5)
Length of Visible Light 9h 46m
Length of Day
8h 34m
Waxing Gibbous, 80% of the Moon is Illuminated
Dec 5
Waxing Gibbous
Dec 10
Full
Dec 17
Last Quarter
Dec 24
New
Dec 31
First Quarter

Hourly Weather History & Observations

Time (PST) Temp. Windchill Dew Point Humidity Pressure Visibility Wind Dir Wind Speed Gust Speed Precip Events Conditions
12:53 AM 21.0 °F - 17.1 °F 85% 30.54 in 10.0 mi Calm Calm - N/A   Mostly Cloudy
1:53 AM 21.9 °F - 16.0 °F 78% 30.56 in 10.0 mi Calm Calm - N/A   Clear
2:53 AM 21.9 °F 15.7 °F 15.1 °F 75% 30.56 in 10.0 mi SSE 4.6 mph - N/A   Mostly Cloudy
3:53 AM 24.1 °F - 15.1 °F 69% 30.55 in 10.0 mi Calm Calm - N/A   Clear
4:53 AM 17.1 °F - 12.9 °F 84% 30.57 in 10.0 mi Calm Calm - N/A   Clear
5:53 AM 18.0 °F - 12.9 °F 81% 30.57 in 10.0 mi Calm Calm - N/A   Overcast
6:53 AM 21.0 °F - 17.1 °F 85% 30.57 in 10.0 mi Calm Calm - N/A   Overcast
7:53 AM 24.1 °F - 19.0 °F 81% 30.56 in 10.0 mi Calm Calm - N/A   Overcast
8:53 AM 24.1 °F - 19.0 °F 81% 30.57 in 10.0 mi Calm Calm - N/A   Partly Cloudy
9:53 AM 30.0 °F 24.1 °F 19.0 °F 64% 30.56 in 10.0 mi South 5.8 mph - N/A   Clear
10:53 AM 30.9 °F 26.2 °F 19.0 °F 61% 30.54 in 10.0 mi South 4.6 mph - N/A   Clear
11:53 AM 33.1 °F 30.0 °F 21.0 °F 61% 30.52 in 10.0 mi SSE 3.5 mph - N/A   Overcast
12:53 PM 34.0 °F 28.0 °F 23.0 °F 64% 30.50 in 10.0 mi SSW 6.9 mph - N/A   Clear
2:53 PM 35.1 °F 32.2 °F 21.9 °F 59% 30.48 in 10.0 mi SE 3.5 mph - N/A   Overcast
3:53 PM 34.0 °F - 21.9 °F 61% 30.48 in 10.0 mi Calm Calm - N/A   Overcast
4:53 PM 32.0 °F - 24.1 °F 73% 30.49 in 10.0 mi Calm Calm - N/A   Overcast
5:53 PM 32.0 °F - 25.0 °F 75% 30.49 in 10.0 mi Calm Calm - N/A   Overcast
6:53 PM 30.9 °F - 24.1 °F 76% 30.48 in 10.0 mi Calm Calm - N/A   Overcast
7:53 PM 30.0 °F - 24.1 °F 79% 30.48 in 10.0 mi Calm Calm - N/A   Overcast
8:53 PM 32.0 °F - 24.1 °F 73% 30.46 in 10.0 mi Calm Calm - N/A   Overcast
9:53 PM 30.9 °F - 24.1 °F 76% 30.45 in 10.0 mi Calm Calm - N/A   Overcast
10:53 PM 32.0 °F - 24.1 °F 73% 30.45 in 10.0 mi Calm Calm - N/A   Overcast
11:53 PM 30.9 °F - 25.0 °F 79% 30.44 in 10.0 mi Calm Calm - N/A   Overcast